Location: Mat�lon
(46.2791°N, 7.1028°E)
Time: 06:08:30
(UTC+00:00)

Cosmos 1072 Rocket - Pass Details

Date: 18 September 2020
Orbit: 949 x 1008 km, 82.9° (Epoch: 23 October)

Event Time Altitude Azimuth Distance (km) Brightness Sun altitude
Rises 18:47:15 0° 179° (S) 3,643 7.3 -12.9°
Reaches altitude 10° 18:49:44 10° 177° (S) 2,709 6.6 -13.3°
Maximum altitude 18:55:54 72° 95° (E) 1,035 4.4 -14.3°
Drops below altitude 10° 19:02:13 10° 12° (NNE) 2,768 7.0 -15.3°
Sets 19:04:47 0° 11° (N) 3,729 7.7 -15.8°
